Regional Weather Roundup
Issued by NWS

Home | Current Version | Previous Version | Graphics & Text | Print | Product List | Glossary On
Versions: 1 2 3 4 5 6 7 8 9 10 11 12 13 14 15 16 17 18 19 20 21 22 23 24 25 26 27 28 29 30 31 32 33 34 35 36 37 38 39 40 41 42 43 44 45 46 47 48 49 50
921
ASUS45 KBOU 112307
RWRCO

WEATHER ROUNDUP FOR COLORADO
NATIONAL WEATHER SERVICE DENVER/BOULDER CO
400 PM MST THU FEB 11 2016

NOTE: "FAIR" INDICATES FEW OR NO CLOUDS BELOW 12000 FEET WITH NO
SIGNIFICANT WEATHER AND/OR OBSTRUCTIONS TO VISIBILITY.

COZ001>005-013-030-031-120000-
...NORTHWEST COLORADO...

CITY           SKY/WX    TMP DP  RH WIND       PRES   REMARKS
CRAIG          CLOUDY    29  21  72 S3        30.36S
HAYDEN         CLOUDY    32  18  55 NE6       30.36S WCI  26
MEEKER         SUNNY     42  22  44 CALM      30.35S
MOUNT WERNER   NOT AVBL
STEAMBOAT SPGS CLOUDY    33  16  50 CALM      30.35F
WALDEN         CLOUDY    37  19  48 S8        30.33R
$$

COZ006>008-011-120000-
...WEST CENTRAL VALLEYS...

CITY           SKY/WX    TMP DP  RH WIND       PRES   REMARKS
GRAND JUNCTION CLOUDY    40  29  64 NW5       30.37R
MONTROSE       CLOUDY    48  23  37 CALM      30.37S
EAGLE          SUNNY     45  19  36 CALM      30.36S
RIFLE          SUNNY     42  19  39 SE5       30.36S
DELTA          CLOUDY    50  24  35 SW3       30.37S
NUCLA          CLOUDY    46  21  36 CALM      30.39S
$$

COZ017>023-064>068-120000-
...SOUTHWEST COLORADO...

CITY           SKY/WX    TMP DP  RH WIND       PRES   REMARKS
DURANGO        CLOUDY    43  20  39 NE7       30.34R
CORTEZ         CLOUDY    51  24  34 E5        30.34S
PAGOSA SPRINGS CLOUDY    48  16  27 S6        30.36R
TELLURIDE      CLOUDY    47   5  18 W14       30.43S
WOLF CREEK PAS CLOUDY    37   5  25 S5        30.52R
$$

COZ009-010-012-014-032>034-037-058>063-120000-
...CENTRAL COLORADO...

CITY           SKY/WX    TMP DP  RH WIND       PRES   REMARKS
ASPEN          CLOUDY    45  17  32 NW7       30.36R
BUENA VISTA    CLOUDY    54  15  22 CALM      30.28S
COPPER MTN     CLOUDY    36  12  38 W22G36    30.45S
BERTHOUD PASS  FAIR      27  16  63 NW39G55   30.37S WCI   8
COTTONWOOD PAS CLOUDY    50   7  17 SW15G30   30.36R
GUNNISON       CLOUDY    16   9  73 CALM      30.46S
KREMMLING      CLOUDY    23   9  54 CALM      30.40F
LEADVILLE      CLOUDY    43  13  29 N14       30.37R
MONARCH PASS   CLOUDY    32   9  37 W30       30.54R WCI  18
SALIDA         NOT AVBL
SUNLIGHT       SUNNY     37  12  35 CALM      30.50R
WILKERSON PASS SUNNY     39  12  33 W7        30.43R
$$

COZ069>075-120000-
...SAN LUIS VALLEY/SANGRE DE CRISTO MOUNTAINS...

CITY           SKY/WX    TMP DP  RH WIND       PRES   REMARKS
ALAMOSA        SUNNY     51  13  21 W6        30.32S
LA VETA PASS   CLOUDY    43  10  26 S12G25    30.38R
SAGUACHE       SUNNY     46  18  31 SE8       30.34S
$$

COZ035-036-038>040-120000-
...NORTHERN COLORADO FRONT RANGE...

CITY           SKY/WX    TMP DP  RH WIND       PRES   REMARKS
DENVER INTL AP PTSUNNY   54  27  35 SE10      30.14R
DMNS CITY PARK   N/A     62  19  18 NW16      30.13R
AURORA         PTSUNNY   63  24  23 NE8       30.15R
FRONT RANGE AP PTSUNNY   54  30  40 MISG      30.16R
ERIE MUNI ARPT CLOUDY    61  23  23 CALM      30.11R
BOULDER MUN AP CLOUDY    63  21  20 W25G35    30.10S
CENTENNIAL     CLOUDY    58  22  24 NW12      30.14R
BROOMFIELD     PTSUNNY   59  21  23 W12       30.14
FORT COLLINS   CLOUDY    52  28  40 S6        30.13R
LONGMONT       CLOUDY    60  32  35 CALM      30.13R
$$

COZ041-046-047-076>085-087-088-120000-
...PIKES PEAK/PALMER DIVIDE AND SOUTHERN FOOTHILLS...

CITY           SKY/WX    TMP DP  RH WIND       PRES   REMARKS
COLO. SPRINGS  CLOUDY    56  17  21 E6        30.16R
A. F. ACADEMY  CLOUDY    57  16  19 NE3       30.17R
SCHRIEVER AFB  FAIR      53  23  31 NW6       30.17R
ELLICOTT       CLOUDY   N/A N/A N/A CALM      30.16R
FALCON         NOT AVBL
FORT CARSON    CLOUDY    62  22  21 N3        30.13R
LIMON          CLOUDY    50  28  42 CALM      30.17R
MONUMENT HILL  CLOUDY    48  19  32 N8        30.21S
TRINIDAD       SUNNY     69   6   8 N8        30.15R
$$

COZ042>045-048>051-090-091-120000-
...NORTHEAST COLORADO...

CITY           SKY/WX    TMP DP  RH WIND       PRES   REMARKS
GREELEY ARPT   CLOUDY    50  34  53 SE12      30.12R
AKRON          CLOUDY    53  28  38 N8        30.14R
BURLINGTON     CLOUDY    54  29  38 N12       30.13R
WRAY           NOT AVBL
STERLING       CLOUDY    54  32  43 N14G20    30.11R
HOLYOKE        CLOUDY    55  32  41 NW8       30.10S
FORT MORGAN    CLOUDY    54  26  33 N18       30.13R
$$

COZ086-089-092>099-120000-
...SOUTHEAST COLORADO...

CITY           SKY/WX    TMP DP  RH WIND       PRES   REMARKS
PUEBLO         CLOUDY    73  12   9 W15G21    30.07F
LA JUNTA       SUNNY     67  22  18 NE6       30.09S
LAMAR          CLOUDY    68  23  18 NW7       30.07R
SPRINGFIELD      N/A     65  15  14 N9        30.10R
$$




USA.gov is the U.S. government's official web portal to all federal, state and local government web resources and services.